EST,Max TemperatureF,Mean TemperatureF,Min TemperatureF,Max Dew PointF,MeanDew PointF,Min DewpointF,Max Humidity, Mean Humidity, Min Humidity, Max Sea Level PressureIn, Mean Sea Level PressureIn, Min Sea Level PressureIn, Max VisibilityMiles, Mean VisibilityMiles, Min VisibilityMiles, Max Wind SpeedMPH, Mean Wind SpeedMPH, Max Gust SpeedMPH,PrecipitationIn, CloudCover, Events, WindDirDegrees
2013-1-1,14,7,-1,10,4,-9,92,81,61,29.62,29.48,29.37,10,7,1,25,12,31,0.01,6,Snow,279
2013-1-2,4,-2,-8,-7,-10,-14,75,67,57,29.91,29.72,29.62,10,10,10,28,18,38,0.00,0,,303
2013-1-3,3,-1,-5,-5,-8,-11,83,74,66,29.96,29.91,29.82,10,10,10,26,12,33,0.00,3,,303
2013-1-4,21,7,-7,18,7,-10,93,86,78,29.81,29.56,29.44,10,5,1,12,6,15,T,8,Snow,177
2013-1-5,19,8,-3,16,6,-8,93,74,51,30.17,29.77,29.49,10,6,1,33,12,43,0.01,5,Snow,295
2013-1-6,11,4,-3,5,-1,-7,84,78,67,30.14,30.00,29.88,10,7,2,12,5,15,T,7,Snow,240
2013-1-7,1,-4,-9,-6,-11,-13,83,68,50,30.34,30.25,30.08,10,10,10,13,7,,0.00,1,,318
2013-1-8,31,13,-5,23,12,-10,81,76,69,30.22,30.08,29.95,10,10,10,28,11,35,T,6,,210
2013-1-9,30,26,22,29,23,18,100,89,74,30.32,30.02,29.61,10,5,0,17,7,22,0.02,6,Fog-Snow,163
2013-1-10,33,26,18,29,23,14,100,82,63,30.44,29.94,29.61,10,7,2,30,18,44,0.01,6,Snow,304
2013-1-11,27,19,11,14,12,9,88,73,51,30.49,30.38,30.21,10,10,10,21,6,24,0.00,2,,315
2013-1-12,32,28,23,30,21,14,96,77,63,30.22,30.10,29.98,10,10,6,21,12,25,T,8,,147
2013-1-13,41,36,31,36,34,30,100,97,86,30.05,29.95,29.83,10,4,0,17,7,22,T,7,Fog-Rain,151
2013-1-14,48,34,19,39,32,5,100,89,52,30.15,29.77,29.65,10,5,0,40,14,52,0.00,6,Fog,165
2013-1-15,19,14,9,6,3,1,70,60,54,30.27,30.22,30.16,10,10,10,16,8,23,0.00,1,,291
2013-1-16,25,18,10,21,15,4,96,83,60,30.17,29.86,29.64,10,7,2,16,7,23,0.02,7,Snow,170
2013-1-17,27,8,-12,23,7,-20,96,76,37,30.14,29.73,29.53,10,7,0,31,12,45,T,5,Fog-Snow,300
2013-1-18,1,-8,-17,-12,-17,-21,84,64,43,30.20,30.15,30.07,10,10,7,18,7,24,T,1,Snow,252
2013-1-19,16,7,-3,12,3,-13,92,81,57,30.18,29.97,29.85,10,4,1,13,6,17,T,8,Snow,127
2013-1-20,30,15,-1,27,13,-10,100,84,63,29.92,29.47,29.19,10,3,0,33,16,46,0.14,7,Fog-Snow,162
2013-1-21,4,-1,-7,-9,-12,-15,69,63,53,29.94,29.77,29.55,10,10,2,22,11,29,0.00,3,,261
2013-1-22,-1,-9,-18,-13,-17,-21,83,69,49,29.91,29.84,29.76,10,9,3,18,6,24,T,2,Snow,321
2013-1-23,-7,-14,-21,-18,-22,-26,76,66,50,29.85,29.77,29.65,10,9,3,26,12,32,0.00,3,,275
2013-1-24,-4,-7,-11,-13,-16,-18,77,68,54,29.89,29.70,29.61,10,5,1,26,16,37,T,7,Snow,297
2013-1-25,5,-1,-8,-6,-9,-15,79,69,60,30.02,29.93,29.81,10,9,3,26,16,37,T,5,,303
2013-1-26,7,2,-4,-4,-6,-9,79,68,56,29.98,29.94,29.84,10,9,4,24,13,33,T,5,,308
2013-1-27,10,6,2,0,-5,-10,76,65,53,30.29,30.14,29.94,10,10,7,29,16,36,T,4,,319
2013-1-28,17,7,-3,-5,-7,-10,82,53,34,30.30,30.19,30.06,10,10,10,16,4,18,0.00,1,,260
2013-1-29,26,17,7,12,6,-5,68,63,53,30.17,30.10,30.03,10,10,10,16,5,20,0.00,3,,351
2013-1-30,43,32,21,43,32,10,100,93,63,30.03,29.56,29.29,10,5,0,21,14,30,0.05,8,Fog-Rain-Snow,157
2013-1-31,50,31,11,50,35,-2,100,85,48,29.26,28.88,28.54,10,5,0,40,20,56,0.72,8,Fog-Rain-Snow,191